Tracking 29892 objects as of 21-Nov-2024
HD Live streaming from Space Station
objects crossing your sky now

STARLINK-1360

Track STARLINK-1360 now!
10-day predictions
STARLINK-1360 is classified as:


NORAD ID: 45588
Int'l Code: 2020-025BK
Perigee: 547.2 km
Apogee: 548.3 km
Inclination: 53.1 °
Period: 95.5 minutes
Semi major axis: 6918 km
RCS: Unknown
Launch date: April 22, 2020
Source: United States (US)
Launch site: AIR FORCE EASTERN TEST RANGE (AFETR)
Your satellite tracking list
Your tracking list is empty




NASA's NSSDC Master Catalog

Two Line Element Set (TLE):
1 45588U 20025BK  24325.25902328  .00030808  00000-0  19602-2 0  9995
2 45588  53.0540  45.8711 0000785 106.6854 253.4222 15.08558198254006
Source of the keplerian elements: AFSPC